[[{"header":{"parameterUnit":"m.s-1","parameterCategory":1,"la1":30.2991,"la2":30.254,"lo1":-89.0895,"lo2":-89.0444,"dy":0.0017,"dx":0.0017,"nx":28,"ny":28,"refTime":"2025-01-30T03:00:00:Z","depth":0,"parameterNumber":2,"parameterNumberName":"U-component_of_WINDS"},"data":[0,0,0,0,0,0,0,0,0,0,0,0,0,0,0,0,0,0,0,0,0,0,0,0,0,0,0,0,0,0,0,0,0,0,0,0,0,0,0,0,0,0,0,0,0,0,0,0,0,0,0,0,0,0,0,0,0,0,-2.3203,-2.3203,0,-2.323,-2.323,-2.3231,-2.3167,-2.3165,-2.3163,-2.3161,-2.3193,-2.3196,-2.3198,0,0,0,0,0,0,0,0,0,0,0,0,0,-2.3098,-2.31,-2.3203,-2.3203,-2.3203,-2.323,-2.3231,-2.3231,-2.3168,-2.3165,-2.3163,-2.3161,-2.3192,-2.3195,-2.3198,0,0,0,0,0,0,0,0,0,0,0,0,0,-2.3137,-2.3101,-2.3203,-2.3175,-2.3173,-2.323,-2.3231,-2.3231,-2.3168,-2.3165,-2.3162,-2.3159,-2.3191,-2.3195,-2.3199,-2.3285,0,0,-2.3211,-2.3213,0,0,0,0,0,0,0,0,-2.3134,-2.314,-2.3179,-2.3177,-2.3175,-2.3192,-2.3205,-2.3249,-2.3169,-2.317,-2.3161,-2.3158,-2.3195,-2.3199,-2.3211,-2.3287,-2.3288,-2.3212,-2.3214,-2.3216,-2.3217,0,0,0,0,0,0,0,-2.3132,-2.3139,-2.3214,-2.3179,-2.3177,-2.3162,-2.3164,-2.3213,-2.32,-2.317,-2.3165,-2.3169,-2.3194,-2.3207,-2.3211,-2.3288,-2.3212,-2.3215,-2.3218,-2.3219,-2.3436,-2.3439,0,0,0,0,0,0,-2.3132,-2.3137,-2.3213,-2.3214,-2.3147,-2.3166,-2.3169,-2.319,-2.3199,-2.3197,-2.3172,-2.3166,-2.3202,-2.3206,-2.3212,-2.3313,-2.3216,-2.322,-2.3222,-2.3433,-2.3437,-2.344,0,0,0,0,0,0,-2.313,-2.314,-2.3212,-2.3175,-2.3183,-2.3171,-2.3196,-2.3192,-2.3205,-2.32,-2.3198,-2.3188,-2.3199,-2.3206,-2.3267,-2.3313,-2.3222,-2.3225,-2.3429,-2.3434,-2.3438,-2.3516,0,0,0,0,0,0,-2.3128,-2.3139,-2.3171,-2.3176,-2.3185,-2.3266,-2.3198,-2.3195,-2.3212,-2.3205,-2.3215,-2.3213,-2.3197,-2.3261,-2.3271,-2.3317,-2.3229,-2.3425,-2.3431,-2.3437,-2.3509,-2.3523,-2.3535,0,0,0,0,0,-2.3124,-2.3193,-2.3173,-2.3183,-2.3224,-2.3268,-2.3274,-2.3253,-2.3216,-2.3248,-2.3245,-2.3213,-2.3307,-2.3268,-2.3279,-2.3327,-2.3422,-2.3429,-2.3436,-2.3504,-2.352,-2.3534,0,0,0,0,0,0,-2.3195,-2.3193,-2.3171,-2.3243,-2.3256,-2.3258,-2.3298,-2.3272,-2.3296,-2.3289,-2.3263,-2.3266,-2.3332,-2.3335,-2.3292,-2.341,-2.3358,-2.3368,-2.3405,-2.3421,-2.3434,-2.3431,-2.3232,0,0,0,0,0,-2.3219,-2.3254,-2.3251,-2.3315,-2.3322,-2.3309,-2.3328,-2.3311,-2.3324,-2.3329,-2.333,-2.3345,-2.3378,-2.34,-2.3429,-2.351,-2.3511,-2.3548,-2.3561,-2.3571,-2.358,-2.3622,-2.3638,-2.3465,-2.3464,-2.3464,0,0,-2.327,-2.3273,-2.3297,-2.3329,-2.3337,-2.3375,-2.3314,-2.3357,-2.3385,-2.3336,-2.3393,-2.3395,-2.3409,-2.348,-2.3511,-2.3485,-2.3628,-2.3581,-2.3589,-2.3592,-2.3631,-2.3648,-2.3663,-2.347,-2.3469,-2.3468,0,0,-2.338,-2.3386,-2.3439,-2.3449,-2.3461,-2.3452,-2.3465,-2.347,-2.3469,-2.3526,-2.349,-2.3523,-2.358,-2.3591,-2.3605,-2.372,-2.3691,-2.373,-2.3797,-2.3838,-2.3852,-2.3864,-2.3904,-2.3919,-2.3739,-2.3739,-2.3739,0,-2.3441,-2.3495,-2.3471,-2.3515,-2.3531,-2.3487,-2.3542,-2.3552,-2.3575,-2.3587,-2.3557,-2.3626,-2.3634,-2.3706,-2.3734,-2.3747,-2.3761,-2.3729,-2.3852,-2.3863,-2.3874,-2.3913,-2.3928,-2.3744,-2.3743,-2.3743,-2.3742,0,-2.3569,-2.3608,-2.365,-2.3671,-2.3691,-2.3741,-2.3724,-2.3748,-2.3729,-2.3724,-2.3782,-2.3789,-2.3819,-2.3835,-2.3817,-2.3905,-2.3888,-2.3856,-2.3802,-2.3896,-2.3931,-2.3946,-2.3751,-2.3749,-2.3748,-2.3746,0,0,-2.3725,-2.3732,-2.3748,-2.3757,-2.3767,-2.3797,-2.3845,-2.3873,-2.3894,-2.3911,-2.395,-2.3999,-2.3968,-2.3984,-2.3967,-2.4004,-2.4094,-2.3967,-2.3967,-2.399,-2.4191,-2.4215,-2.4232,-2.4075,-2.4078,-2.408,-2.4189,0,-2.3834,-2.3914,-2.3894,-2.3974,-2.4009,-2.3968,-2.401,-2.4022,-2.4018,-2.4047,-2.4043,-2.4078,-2.4035,-2.4044,-2.4078,-2.4076,-2.4134,-2.4068,-2.4112,-2.4114,-2.4109,-2.4251,-2.4276,-2.4379,-2.4203,-2.4205,-2.4207,0,-2.3971,-2.3992,-2.4076,-2.408,-2.4094,-2.4132,-2.4156,-2.4185,-2.4197,-2.4191,-2.4209,-2.4185,-2.4233,-2.4179,-2.4245,-2.42,-2.4217,-2.4219,-2.4222,-2.4225,-2.4166,-2.4257,-2.4411,-2.4427,-2.4229,-2.4227,-2.4225,0,-2.4076,-2.4125,-2.4181,-2.419,-2.4197,-2.4224,-2.4229,-2.4238,-2.4256,-2.4278,-2.4289,-2.4317,-2.4332,-2.4354,-2.4338,-2.4301,-2.4407,-2.4352,-2.4404,-2.4404,-2.4427,-2.4426,-2.4586,-2.444,-2.4439,-2.4439,-2.4439,0,-2.4199,-2.4252,-2.4228,-2.4263,-2.4321,-2.4297,-2.4355,-2.4355,-2.4364,-2.4398,-2.4365,-2.4398,-2.4376,-2.4407,-2.4396,-2.4452,-2.4459,-2.4456,-2.4452,-2.4459,-2.4459,-2.4469,-2.4461,-2.4443,-2.4442,-2.4441,-2.4441,0,-2.4325,-2.4312,-2.437,-2.4372,-2.4373,-2.4416,-2.4417,-2.445,-2.4443,-2.4487,-2.4496,-2.4486,-2.4521,-2.4508,-2.4546,-2.4538,-2.4609,-2.4597,-2.4605,-2.4601,-2.4653,-2.4648,-2.4825,-2.4847,-2.4687,-2.4689,-2.469,0,-2.4405,-2.4444,-2.4449,-2.4469,-2.4475,-2.4508,-2.4526,-2.4505,-2.4525,-2.4542,-2.4572,-2.4605,-2.4629,-2.4688,-2.4684,-2.4713,-2.4701,-2.4761,-2.4705,-2.471,-2.4701,-2.4698,-2.4702,-2.4772,-2.4773,-2.4775,-2.4776,0,-2.4546,-2.4537,-2.4564,-2.4589,-2.4611,-2.4629,-2.4645,-2.4664,-2.4643,-2.4668,-2.4703,-2.4722,-2.476,-2.4792,-2.4818,-2.4823,-2.4797,-2.4794,-2.4807,-2.4814,-2.4816,-2.4815,-2.4634,-2.479,-2.4788,-2.4787,-2.4787,-2.4786,-2.4651,-2.4683,-2.4692,-2.4723,-2.4732,-2.4748,-2.4778,-2.4775,-2.4803,-2.4831,-2.4817,-2.4858,-2.487,-2.4901,-2.491,-2.4942,-2.4919,-2.4939,-2.4943,-2.4948,-2.4955,-2.4812,-2.4947,-2.4947,-2.4946,-2.4946,-2.4946,0,-2.479,-2.4793,-2.4822,-2.4844,-2.4869,-2.484,-2.4856,-2.4879,-2.4915,-2.4927,-2.4952,-2.4992,-2.5023,-2.5022,-2.5051,-2.5077,-2.5066,-2.5085,-2.5083,-2.5085,-2.4974,-2.4959,-2.5094,-2.5094,-2.5094,-2.5094,-2.5094,-2.5094,-2.4865,-2.4919,-2.4911,-2.4969,-2.4972,-2.5011,-2.5022,-2.5037,-2.5046,-2.5092,-2.5118,-2.5116,-2.5124,-2.5153,-2.5181,-2.5179,-2.5192,-2.5216,-2.521,-2.5107,-2.5092,-2.5078,-2.5064,-2.5219,-2.5219,-2.5318,-2.5319,-2.532]},{"header":{"parameterUnit":"m.s-1","parameterCategory":1,"la1":30.2991,"la2":30.254,"lo1":-89.0895,"lo2":-89.0444,"dy":0.0017,"dx":0.0017,"nx":28,"ny":28,"refTime":"2025-01-30T03:00:00:Z","depth":0,"parameterNumber":3,"parameterNumberName":"V-component_of_WINDS"},"data":[0,0,0,0,0,0,0,0,0,0,0,0,0,0,0,0,0,0,0,0,0,0,0,0,0,0,0,0,0,0,0,0,0,0,0,0,0,0,0,0,0,0,0,0,0,0,0,0,0,0,0,0,0,0,0,0,0,0,0.3214,0.3215,0,0.3298,0.3299,0.33,0.3315,0.3314,0.3314,0.3313,0.3402,0.3405,0.3408,0,0,0,0,0,0,0,0,0,0,0,0,0,0.3071,0.3073,0.3214,0.3215,0.3216,0.3298,0.3299,0.33,0.3315,0.3314,0.3314,0.3313,0.3401,0.3405,0.3409,0,0,0,0,0,0,0,0,0,0,0,0,0,0.3142,0.3074,0.3214,0.3233,0.3236,0.3297,0.3299,0.33,0.3315,0.3314,0.3313,0.3312,0.34,0.3405,0.3409,0.3458,0,0,0.3423,0.3425,0,0,0,0,0,0,0,0,0.3138,0.3147,0.3229,0.3232,0.3235,0.3295,0.3281,0.3353,0.3316,0.3285,0.3313,0.3312,0.3368,0.3375,0.3393,0.3462,0.3466,0.3423,0.3426,0.3428,0.3429,0,0,0,0,0,0,0,0.3133,0.3143,0.3247,0.3231,0.3234,0.3239,0.3248,0.3295,0.3332,0.3288,0.3289,0.3299,0.3369,0.3389,0.3395,0.3468,0.3423,0.3427,0.343,0.3432,0.3584,0.3585,0,0,0,0,0,0,0.3124,0.3139,0.3244,0.325,0.3183,0.3243,0.3253,0.3277,0.3331,0.3338,0.33,0.3299,0.3381,0.339,0.3398,0.3462,0.3428,0.3432,0.3435,0.3583,0.3584,0.3586,0,0,0,0,0,0,0.3121,0.3133,0.3241,0.3195,0.3209,0.3246,0.3273,0.3279,0.3299,0.334,0.3347,0.3313,0.3381,0.3392,0.3444,0.3465,0.3434,0.3439,0.3581,0.3583,0.3585,0.3587,0,0,0,0,0,0,0.3116,0.3132,0.315,0.3195,0.3211,0.3284,0.3274,0.3281,0.3306,0.3306,0.3354,0.3361,0.3381,0.3437,0.3448,0.3471,0.3442,0.3579,0.3582,0.3584,0.3585,0.3588,0.3591,0,0,0,0,0,0.3111,0.3147,0.3151,0.3163,0.3234,0.3285,0.3294,0.3316,0.3307,0.3327,0.3354,0.3359,0.346,0.3442,0.3455,0.3479,0.3578,0.3581,0.3584,0.3584,0.3588,0.3591,0,0,0,0,0,0,0.3104,0.3153,0.3158,0.3209,0.3242,0.3287,0.3312,0.3319,0.3357,0.3356,0.3382,0.3392,0.3443,0.3466,0.3445,0.353,0.3519,0.3525,0.3514,0.3518,0.3521,0.3516,0.3446,0,0,0,0,0,0.3108,0.3144,0.3185,0.3226,0.3243,0.3274,0.3297,0.3311,0.3347,0.3362,0.3392,0.3428,0.3468,0.3494,0.3533,0.3588,0.36,0.3611,0.3614,0.3616,0.3622,0.3655,0.3661,0.3595,0.3595,0.3595,0,0,0.3118,0.3149,0.317,0.3226,0.3253,0.3291,0.3286,0.3326,0.3355,0.3368,0.3419,0.3443,0.3485,0.3539,0.3564,0.3559,0.3642,0.362,0.3622,0.3626,0.3659,0.3665,0.367,0.3597,0.3597,0.3597,0,0,0.3155,0.3181,0.3219,0.3247,0.3288,0.3309,0.3318,0.3362,0.3379,0.343,0.3441,0.3476,0.3544,0.3574,0.3598,0.3648,0.3655,0.3659,0.3677,0.3709,0.3715,0.3719,0.374,0.3746,0.3664,0.3664,0.3664,0,0.3162,0.3218,0.3238,0.3278,0.3304,0.3316,0.3356,0.3382,0.3435,0.3453,0.3446,0.3533,0.3562,0.3624,0.3637,0.3655,0.3668,0.3655,0.3712,0.3717,0.3722,0.3741,0.3749,0.3665,0.3665,0.3665,0.3664,0,0.3226,0.3265,0.3291,0.3341,0.3369,0.3409,0.3437,0.3463,0.3474,0.3496,0.355,0.3585,0.3632,0.3647,0.3659,0.3712,0.3708,0.3706,0.3696,0.3728,0.3747,0.3755,0.3665,0.3665,0.3665,0.3665,0,0,0.3262,0.3323,0.3332,0.3356,0.3403,0.3434,0.3475,0.3521,0.3544,0.358,0.3617,0.3674,0.3673,0.3701,0.3716,0.3743,0.3783,0.3739,0.374,0.3748,0.3847,0.385,0.3858,0.3788,0.3789,0.379,0.3845,0,0.3307,0.3379,0.3399,0.3462,0.3499,0.3512,0.3548,0.3582,0.3603,0.364,0.3664,0.3706,0.37,0.3717,0.3745,0.3772,0.3804,0.3768,0.3825,0.3826,0.3816,0.3868,0.3871,0.392,0.3852,0.3853,0.3854,0,0.3369,0.3406,0.3471,0.3515,0.3532,0.3564,0.3608,0.3642,0.3681,0.3695,0.3726,0.3739,0.3784,0.3769,0.3833,0.3809,0.3833,0.385,0.3853,0.3861,0.3844,0.388,0.3936,0.3945,0.3865,0.3864,0.3864,0,0.3392,0.3458,0.3506,0.3526,0.3577,0.36,0.3622,0.366,0.3687,0.3726,0.3744,0.3788,0.3812,0.3847,0.3872,0.3858,0.3935,0.3921,0.395,0.395,0.3968,0.3967,0.4031,0.3978,0.3978,0.3978,0.3978,0,0.3441,0.3482,0.3517,0.3548,0.3594,0.3617,0.3663,0.3686,0.372,0.3756,0.3769,0.3803,0.3833,0.3872,0.3891,0.3943,0.3953,0.3968,0.3973,0.3968,0.3967,0.3986,0.3985,0.398,0.398,0.3979,0.3979,0,0.3476,0.3501,0.3555,0.3599,0.3611,0.3644,0.3682,0.3713,0.3735,0.3781,0.3793,0.3828,0.3875,0.3902,0.3961,0.3974,0.4032,0.4035,0.4019,0.4022,0.405,0.4048,0.4132,0.4145,0.4081,0.4081,0.4082,0,0.3507,0.3538,0.3586,0.361,0.3633,0.3673,0.37,0.3724,0.3752,0.38,0.3825,0.3872,0.3911,0.3985,0.4017,0.4062,0.4068,0.4094,0.4075,0.4069,0.4071,0.407,0.4075,0.4098,0.4098,0.4099,0.4099,0,0.356,0.3571,0.3609,0.3652,0.3684,0.3719,0.3754,0.3774,0.3804,0.3836,0.3883,0.3913,0.3973,0.402,0.4068,0.4094,0.4103,0.4104,0.4114,0.4111,0.4102,0.411,0.4031,0.4103,0.4103,0.4102,0.4102,0.4102,0.3596,0.3626,0.3664,0.3707,0.3735,0.3768,0.38,0.3825,0.3864,0.3915,0.3926,0.3977,0.4017,0.4082,0.4109,0.4149,0.4146,0.4159,0.4162,0.4166,0.4168,0.4093,0.4158,0.4158,0.4158,0.4158,0.4158,0,0.3653,0.3678,0.3717,0.3765,0.3799,0.3802,0.3842,0.3871,0.3914,0.395,0.3988,0.4044,0.409,0.4125,0.4173,0.4199,0.4205,0.4211,0.4211,0.4217,0.4168,0.4156,0.4206,0.4206,0.4206,0.4206,0.4206,0.4206,0.3687,0.3737,0.3753,0.3819,0.3844,0.3893,0.3915,0.3946,0.3975,0.4036,0.4074,0.4096,0.4133,0.4184,0.4227,0.4236,0.4255,0.4261,0.4271,0.4225,0.422,0.4215,0.4205,0.4264,0.4264,0.4318,0.4318,0.4319]}]]